Time,TemperatureF,DewpointF,PressureIn,WindDirection,WindDirectionDegrees,WindSpeedMPH,WindSpeedGustMPH,Humidity,HourlyPrecipIn,Conditions,Clouds,dailyrainin,SoftwareType,DateUTC
2013-04-20 11:10:00,53.0,35.3,30.15,NNE,13,6.0,11.0,51,0.00,,,0.00,Wunderground v.1.15,2013-04-20 15:10:00,
2013-04-20 11:11:00,53.0,32.2,30.15,NNW,343,7.0,11.0,45,0.00,,,0.00,Wunderground v.1.15,2013-04-20 15:11:00,
2013-04-20 11:15:00,52.9,33.7,30.15,NNE,23,7.0,11.0,48,0.00,,,0.00,Wunderground v.1.15,2013-04-20 15:15:00,
2013-04-20 11:20:00,52.6,33.5,30.15,North,5,9.0,9.0,48,0.00,,,0.00,Wunderground v.1.15,2013-04-20 15:20:00,
2013-04-20 11:24:00,52.4,33.8,30.15,NNE,17,9.0,13.0,49,0.00,,,0.00,Wunderground v.1.15,2013-04-20 15:24:00,
2013-04-20 11:29:00,53.0,33.3,30.14,NW,319,8.0,15.0,47,0.00,,,0.00,Wunderground v.1.15,2013-04-20 15:29:00,
2013-04-20 11:35:00,53.1,34.9,30.15,NW,325,8.0,15.0,50,0.00,,,0.00,Wunderground v.1.15,2013-04-20 15:35:00,
2013-04-20 11:41:00,53.5,34.3,30.15,WNW,283,6.0,6.0,48,0.00,,,0.00,Wunderground v.1.15,2013-04-20 15:41:00,
2013-04-20 11:47:00,53.9,33.6,30.14,NW,305,5.0,9.0,46,0.00,,,0.00,Wunderground v.1.15,2013-04-20 15:47:00,
2013-04-20 11:53:00,54.4,35.1,30.15,North,9,7.0,15.0,48,0.00,,,0.00,Wunderground v.1.15,2013-04-20 15:53:00,
2013-04-20 11:59:00,53.9,34.1,30.15,WSW,248,6.0,15.0,47,0.00,,,0.00,Wunderground v.1.15,2013-04-20 15:59:00,
2013-04-20 12:05:00,54.2,34.4,30.14,WNW,298,7.0,12.0,47,0.00,,,0.00,Wunderground v.1.15,2013-04-20 16:05:00,
2013-04-20 12:10:00,54.7,35.9,30.14,North,360,7.0,12.0,49,0.00,,,0.00,Wunderground v.1.15,2013-04-20 16:10:00,
2013-04-20 12:16:00,55.2,34.2,30.15,WNW,297,6.0,12.0,45,0.00,,,0.00,Wunderground v.1.15,2013-04-20 16:16:00,
2013-04-20 12:22:00,54.8,33.3,30.14,NW,318,7.0,9.0,44,0.00,,,0.00,Wunderground v.1.15,2013-04-20 16:22:00,
2013-04-20 12:28:00,55.1,35.2,30.14,NE,36,6.0,13.0,47,0.00,,,0.00,Wunderground v.1.15,2013-04-20 16:28:00,
2013-04-20 12:33:00,55.7,34.7,30.14,NE,46,6.0,19.0,45,0.00,,,0.00,Wunderground v.1.15,2013-04-20 16:33:00,
2013-04-20 12:39:00,55.3,32.6,30.14,NNE,15,5.0,19.0,42,0.00,,,0.00,Wunderground v.1.15,2013-04-20 16:39:00,
2013-04-20 12:45:00,55.9,34.3,30.14,North,355,5.0,19.0,44,0.00,,,0.00,Wunderground v.1.15,2013-04-20 16:45:00,
2013-04-20 12:51:00,56.1,33.9,30.14,WSW,258,7.0,19.0,43,0.00,,,0.00,Wunderground v.1.15,2013-04-20 16:51:00,
2013-04-20 12:57:00,56.6,36.0,30.13,North,11,6.0,19.0,46,0.00,,,0.00,Wunderground v.1.15,2013-04-20 16:57:00,
2013-04-20 13:03:00,56.7,35.0,30.14,WSW,242,7.0,9.0,44,0.00,,,0.00,Wunderground v.1.15,2013-04-20 17:03:00,
2013-04-20 13:09:00,56.3,35.2,30.13,WNW,300,6.0,9.0,45,0.00,,,0.00,Wunderground v.1.15,2013-04-20 17:09:00,
2013-04-20 13:14:00,56.8,37.3,30.13,NNE,16,4.0,9.0,48,0.00,,,0.00,Wunderground v.1.15,2013-04-20 17:14:00,
2013-04-20 13:20:00,57.7,36.5,30.13,NNW,330,5.0,9.0,45,0.00,,,0.00,Wunderground v.1.15,2013-04-20 17:20:00,
2013-04-20 13:26:00,57.8,36.0,30.13,NNW,344,5.0,9.0,44,0.00,,,0.00,Wunderground v.1.15,2013-04-20 17:26:00,
2013-04-20 13:32:00,58.4,36.0,30.13,North,355,4.0,15.0,43,0.00,,,0.00,Wunderground v.1.15,2013-04-20 17:32:00,
2013-04-20 13:38:00,58.1,35.1,30.13,NNE,22,6.0,15.0,42,0.00,,,0.00,Wunderground v.1.15,2013-04-20 17:38:00,
2013-04-20 13:44:00,58.4,34.8,30.13,West,266,6.0,15.0,41,0.00,,,0.00,Wunderground v.1.15,2013-04-20 17:44:00,
2013-04-20 13:50:00,58.4,35.4,30.13,North,350,4.0,15.0,42,0.00,,,0.00,Wunderground v.1.15,2013-04-20 17:50:00,
2013-04-20 13:55:00,58.2,35.2,30.13,NNW,330,4.0,15.0,42,0.00,,,0.00,Wunderground v.1.15,2013-04-20 17:55:00,
2013-04-20 14:00:00,58.6,35.6,30.13,NNW,331,4.0,4.0,42,0.00,,,0.00,Wunderground v.1.15,2013-04-20 18:00:00,
2013-04-20 14:06:00,58.7,36.8,30.13,NE,43,3.0,5.0,44,0.00,,,0.00,Wunderground v.1.15,2013-04-20 18:06:00,
2013-04-20 14:12:00,59.3,38.5,30.13,West,263,2.0,3.0,46,0.00,,,0.00,Wunderground v.1.15,2013-04-20 18:12:00,
2013-04-20 14:18:00,59.3,35.6,30.13,West,266,4.0,11.0,41,0.00,,,0.00,Wunderground v.1.15,2013-04-20 18:18:00,
2013-04-20 14:24:00,59.3,36.8,30.13,NNW,338,6.0,9.0,43,0.00,,,0.00,Wunderground v.1.15,2013-04-20 18:24:00,
2013-04-20 14:30:00,59.1,34.8,30.13,NW,307,6.0,8.0,40,0.00,,,0.00,Wunderground v.1.15,2013-04-20 18:30:00,
2013-04-20 14:35:00,58.8,35.1,30.13,SW,225,5.0,14.0,41,0.00,,,0.00,Wunderground v.1.15,2013-04-20 18:35:00,
2013-04-20 14:41:00,59.7,38.3,30.13,West,281,4.0,14.0,45,0.00,,,0.00,Wunderground v.1.15,2013-04-20 18:41:00,
2013-04-20 14:47:00,60.3,37.7,30.12,North,9,4.0,14.0,43,0.00,,,0.00,Wunderground v.1.15,2013-04-20 18:47:00,
2013-04-20 14:53:00,60.0,35.0,30.13,NNE,17,6.0,14.0,39,0.00,,,0.00,Wunderground v.1.15,2013-04-20 18:53:00,
2013-04-20 14:59:00,60.0,35.0,30.12,North,355,6.0,14.0,39,0.00,,,0.00,Wunderground v.1.15,2013-04-20 18:59:00,
2013-04-20 15:05:00,60.7,37.5,30.13,NNE,15,6.0,10.0,42,0.00,,,0.00,Wunderground v.1.15,2013-04-20 19:05:00,
2013-04-20 15:11:00,60.3,37.1,30.12,NE,53,5.0,5.0,42,0.00,,,0.00,Wunderground v.1.15,2013-04-20 19:11:00,
2013-04-20 15:16:00,60.4,35.9,30.12,North,11,4.0,5.0,40,0.00,,,0.00,Wunderground v.1.15,2013-04-20 19:16:00,
2013-04-20 15:22:00,60.7,37.5,30.12,NNE,19,4.0,4.0,42,0.00,,,0.00,Wunderground v.1.15,2013-04-20 19:22:00,
2013-04-20 15:28:00,61.0,37.1,30.12,WNW,298,3.0,6.0,41,0.00,,,0.00,Wunderground v.1.15,2013-04-20 19:28:00,
2013-04-20 15:34:00,61.3,35.5,30.12,NE,49,3.0,16.0,38,0.00,,,0.00,Wunderground v.1.15,2013-04-20 19:34:00,
2013-04-20 15:40:00,61.6,39.5,30.12,NNE,19,3.0,3.0,44,0.00,,,0.00,Wunderground v.1.15,2013-04-20 19:40:00,
2013-04-20 15:46:00,61.7,35.8,30.12,NE,35,4.0,16.0,38,0.00,,,0.00,Wunderground v.1.15,2013-04-20 19:46:00,
2013-04-20 15:52:00,61.3,35.5,30.12,NNW,331,6.0,16.0,38,0.00,,,0.00,Wunderground v.1.15,2013-04-20 19:52:00,
2013-04-20 15:58:00,60.8,35.0,30.12,NNW,332,6.0,16.0,38,0.00,,,0.00,Wunderground v.1.15,2013-04-20 19:58:00,
2013-04-20 16:04:00,61.6,37.7,30.12,SSW,210,4.0,11.0,41,0.00,,,0.00,Wunderground v.1.15,2013-04-20 20:04:00,
2013-04-20 16:10:00,61.8,35.2,30.12,NNE,26,5.0,10.0,37,0.00,,,0.00,Wunderground v.1.15,2013-04-20 20:10:00,
2013-04-20 16:15:00,61.6,36.4,30.12,NNE,28,6.0,10.0,39,0.00,,,0.00,Wunderground v.1.15,2013-04-20 20:15:00,
2013-04-20 16:21:00,61.6,36.4,30.12,NE,34,5.0,5.0,39,0.00,,,0.00,Wunderground v.1.15,2013-04-20 20:21:00,
2013-04-20 16:27:00,61.7,35.8,30.12,NE,46,4.0,10.0,38,0.00,,,0.00,Wunderground v.1.15,2013-04-20 20:27:00,
2013-04-20 16:33:00,62.3,37.7,30.12,NNE,15,3.0,12.0,40,0.00,,,0.00,Wunderground v.1.15,2013-04-20 20:33:00,
2013-04-20 16:39:00,61.9,36.0,30.12,WNW,300,5.0,12.0,38,0.00,,,0.00,Wunderground v.1.15,2013-04-20 20:39:00,
2013-04-20 16:45:00,61.9,37.9,30.11,WSW,237,4.0,12.0,41,0.00,,,0.00,Wunderground v.1.15,2013-04-20 20:45:00,
2013-04-20 16:50:00,62.8,38.1,30.12,North,5,3.0,12.0,40,0.00,,,0.00,Wunderground v.1.15,2013-04-20 20:50:00,
2013-04-20 16:56:00,62.6,37.3,30.12,West,265,4.0,12.0,39,0.00,,,0.00,Wunderground v.1.15,2013-04-20 20:56:00,
2013-04-20 17:02:00,63.0,37.6,30.12,NNE,17,3.0,8.0,39,0.00,,,0.00,Wunderground v.1.15,2013-04-20 21:02:00,
2013-04-20 17:08:00,62.5,35.9,30.12,North,355,5.0,8.0,37,0.00,,,0.00,Wunderground v.1.15,2013-04-20 21:08:00,
2013-04-20 17:14:00,62.3,35.0,30.12,NNE,28,4.0,5.0,36,0.00,,,0.00,Wunderground v.1.15,2013-04-20 21:14:00,
2013-04-20 17:20:00,62.5,35.9,30.12,NNW,332,3.0,6.0,37,0.00,,,0.00,Wunderground v.1.15,2013-04-20 21:20:00,
2013-04-20 17:26:00,62.7,35.3,30.12,North,5,3.0,6.0,36,0.00,,,0.00,Wunderground v.1.15,2013-04-20 21:26:00,
2013-04-20 17:32:00,62.0,34.7,30.13,North,351,4.0,14.0,36,0.00,,,0.00,Wunderground v.1.15,2013-04-20 21:32:00,
2013-04-20 17:38:00,62.4,37.1,30.12,North,355,3.0,14.0,39,0.00,,,0.00,Wunderground v.1.15,2013-04-20 21:38:00,
2013-04-20 17:43:00,62.5,35.2,30.13,NNE,26,3.0,14.0,36,0.00,,,0.00,Wunderground v.1.15,2013-04-20 21:43:00,
2013-04-20 17:49:00,62.9,35.5,30.13,WSW,240,3.0,14.0,36,0.00,,,0.00,Wunderground v.1.15,2013-04-20 21:49:00,
2013-04-20 17:55:00,62.9,35.5,30.14,West,266,4.0,14.0,36,0.00,,,0.00,Wunderground v.1.15,2013-04-20 21:55:00,
2013-04-20 18:00:00,62.7,37.4,30.14,WSW,253,5.0,8.0,39,0.00,,,0.00,Wunderground v.1.15,2013-04-20 22:00:00,
2013-04-20 18:06:00,62.5,34.5,30.14,WSW,244,5.0,8.0,35,0.00,,,0.00,Wunderground v.1.15,2013-04-20 22:06:00,
2013-04-20 18:12:00,63.0,34.2,30.15,SW,229,2.0,7.0,34,0.00,,,0.00,Wunderground v.1.15,2013-04-20 22:12:00,
2013-04-20 18:17:00,62.9,34.8,30.15,North,351,2.0,7.0,35,0.00,,,0.00,Wunderground v.1.15,2013-04-20 22:17:00,
2013-04-20 18:23:00,62.6,35.3,30.15,West,264,3.0,4.0,36,0.00,,,0.00,Wunderground v.1.15,2013-04-20 22:23:00,
2013-04-20 18:29:00,62.5,34.5,30.15,North,9,2.0,6.0,35,0.00,,,0.00,Wunderground v.1.15,2013-04-20 22:29:00,
2013-04-20 18:35:00,62.3,37.7,30.15,North,9,3.0,10.0,40,0.00,,,0.00,Wunderground v.1.15,2013-04-20 22:35:00,
2013-04-20 18:41:00,62.2,34.9,30.15,NNE,18,3.0,10.0,36,0.00,,,0.00,Wunderground v.1.15,2013-04-20 22:41:00,
2013-04-20 18:47:00,61.8,36.6,30.16,North,355,3.0,10.0,39,0.00,,,0.00,Wunderground v.1.15,2013-04-20 22:47:00,
2013-04-20 18:53:00,61.5,38.2,30.16,North,355,2.0,10.0,42,0.00,,,0.00,Wunderground v.1.15,2013-04-20 22:53:00,
2013-04-20 18:59:00,61.4,36.8,30.16,North,360,1.0,10.0,40,0.00,,,0.00,Wunderground v.1.15,2013-04-20 22:59:00,
2013-04-20 19:04:00,61.2,34.7,30.16,North,360,2.0,2.0,37,0.00,,,0.00,Wunderground v.1.15,2013-04-20 23:04:00,
2013-04-20 19:10:00,61.1,35.9,30.16,North,360,2.0,2.0,39,0.00,,,0.00,Wunderground v.1.15,2013-04-20 23:10:00,
2013-04-20 19:16:00,60.5,37.9,30.16,North,360,1.0,2.0,43,0.00,,,0.00,Wunderground v.1.15,2013-04-20 23:16:00,
2013-04-20 19:22:00,60.2,39.9,30.16,North,360,0.0,0.0,47,0.00,,,0.00,Wunderground v.1.15,2013-04-20 23:22:00,
2013-04-20 19:28:00,59.3,37.4,30.16,North,360,0.0,0.0,44,0.00,,,0.00,Wunderground v.1.15,2013-04-20 23:28:00,
2013-04-20 19:34:00,58.4,40.3,30.16,North,360,0.0,9.0,51,0.00,,,0.00,Wunderground v.1.15,2013-04-20 23:34:00,
2013-04-20 19:40:00,57.5,40.5,30.17,North,360,0.0,9.0,53,0.00,,,0.00,Wunderground v.1.15,2013-04-20 23:40:00,
2013-04-20 19:45:00,56.5,40.0,30.17,North,360,0.0,9.0,54,0.00,,,0.00,Wunderground v.1.15,2013-04-20 23:45:00,
2013-04-20 19:51:00,55.7,39.8,30.17,North,360,0.0,9.0,55,0.00,,,0.00,Wunderground v.1.15,2013-04-20 23:51:00,
2013-04-20 19:57:00,55.1,40.6,30.17,North,360,0.0,9.0,58,0.00,,,0.00,Wunderground v.1.15,2013-04-20 23:57:00,
2013-04-20 20:03:00,54.8,40.3,30.18,North,360,0.0,0.0,58,0.00,,,0.00,Wunderground v.1.15,2013-04-21 00:03:00,
2013-04-20 20:09:00,54.3,39.4,30.19,North,360,0.0,0.0,57,0.00,,,0.00,Wunderground v.1.15,2013-04-21 00:09:00,
2013-04-20 20:15:00,53.7,38.8,30.19,North,360,0.0,0.0,57,0.00,,,0.00,Wunderground v.1.15,2013-04-21 00:15:00,
2013-04-20 20:21:00,53.2,39.7,30.20,North,360,0.0,0.0,60,0.00,,,0.00,Wunderground v.1.15,2013-04-21 00:21:00,
2013-04-20 20:27:00,52.9,40.2,30.20,North,360,0.0,0.0,62,0.00,,,0.00,Wunderground v.1.15,2013-04-21 00:27:00,
2013-04-20 20:32:00,52.6,39.1,30.20,North,360,0.0,5.0,60,0.00,,,0.00,Wunderground v.1.15,2013-04-21 00:32:00,
2013-04-20 20:38:00,52.2,40.0,30.21,North,360,0.0,5.0,63,0.00,,,0.00,Wunderground v.1.15,2013-04-21 00:38:00,
2013-04-20 20:44:00,51.8,39.6,30.22,North,360,0.0,5.0,63,0.00,,,0.00,Wunderground v.1.15,2013-04-21 00:44:00,
2013-04-20 20:50:00,51.4,39.6,30.22,North,360,0.0,5.0,64,0.00,,,0.00,Wunderground v.1.15,2013-04-21 00:50:00,
2013-04-20 20:56:00,51.2,39.0,30.22,North,360,0.0,5.0,63,0.00,,,0.00,Wunderground v.1.15,2013-04-21 00:56:00,
2013-04-20 21:02:00,51.1,38.9,30.22,North,360,0.0,0.0,63,0.00,,,0.00,Wunderground v.1.15,2013-04-21 01:02:00,
2013-04-20 21:08:00,51.1,38.9,30.23,North,360,0.0,0.0,63,0.00,,,0.00,Wunderground v.1.15,2013-04-21 01:08:00,
2013-04-20 21:14:00,50.9,39.5,30.23,North,360,0.0,0.0,65,0.00,,,0.00,Wunderground v.1.15,2013-04-21 01:14:00,
2013-04-20 21:20:00,50.8,39.8,30.23,North,360,0.0,0.0,66,0.00,,,0.00,Wunderground v.1.15,2013-04-21 01:20:00,
2013-04-20 21:26:00,50.4,40.2,30.24,North,360,0.0,1.0,68,0.00,,,0.00,Wunderground v.1.15,2013-04-21 01:26:00,
2013-04-20 21:31:00,50.1,40.7,30.24,North,360,0.0,1.0,70,0.00,,,0.00,Wunderground v.1.15,2013-04-21 01:31:00,
2013-04-20 21:37:00,49.7,40.7,30.24,North,360,0.0,1.0,71,0.00,,,0.00,Wunderground v.1.15,2013-04-21 01:37:00,
2013-04-20 21:43:00,49.7,39.9,30.25,North,360,0.0,1.0,69,0.00,,,0.00,Wunderground v.1.15,2013-04-21 01:43:00,
2013-04-20 21:49:00,49.6,40.2,30.25,North,360,0.0,1.0,70,0.00,,,0.00,Wunderground v.1.15,2013-04-21 01:49:00,
2013-04-20 21:55:00,49.3,39.2,30.25,North,360,0.0,1.0,68,0.00,,,0.00,Wunderground v.1.15,2013-04-21 01:55:00,
2013-04-20 22:00:00,49.2,40.9,30.25,North,360,1.0,1.0,73,0.00,,,0.00,Wunderground v.1.15,2013-04-21 02:00:00,
2013-04-20 22:05:00,48.9,40.6,30.25,North,360,1.0,1.0,73,0.00,,,0.00,Wunderground v.1.15,2013-04-21 02:05:00,
2013-04-20 22:11:00,47.9,40.7,30.25,North,360,1.0,1.0,76,0.00,,,0.00,Wunderground v.1.15,2013-04-21 02:11:00,
2013-04-20 22:17:00,47.4,39.9,30.25,North,360,0.0,1.0,75,0.00,,,0.00,Wunderground v.1.15,2013-04-21 02:17:00,
2013-04-20 22:23:00,47.4,40.6,30.26,North,360,0.0,0.0,77,0.00,,,0.00,Wunderground v.1.15,2013-04-21 02:23:00,
2013-04-20 22:29:00,47.3,39.1,30.26,North,360,0.0,0.0,73,0.00,,,0.00,Wunderground v.1.15,2013-04-21 02:29:00,
2013-04-20 22:35:00,47.5,39.3,30.26,North,360,0.0,1.0,73,0.00,,,0.00,Wunderground v.1.15,2013-04-21 02:35:00,
2013-04-20 22:41:00,47.6,38.7,30.26,North,360,0.0,1.0,71,0.00,,,0.00,Wunderground v.1.15,2013-04-21 02:41:00,
2013-04-20 22:47:00,47.8,39.2,30.27,North,360,0.0,1.0,72,0.00,,,0.00,Wunderground v.1.15,2013-04-21 02:47:00,
2013-04-20 22:52:00,47.7,38.0,30.27,North,360,0.0,1.0,69,0.00,,,0.00,Wunderground v.1.15,2013-04-21 02:52:00,
2013-04-20 22:58:00,48.0,37.6,30.27,North,360,0.0,1.0,67,0.00,,,0.00,Wunderground v.1.15,2013-04-21 02:58:00,
2013-04-20 23:04:00,48.4,37.6,30.27,North,360,0.0,0.0,66,0.00,,,0.00,Wunderground v.1.15,2013-04-21 03:04:00,
2013-04-20 23:10:00,48.8,37.6,30.27,North,360,0.0,0.0,65,0.00,,,0.00,Wunderground v.1.15,2013-04-21 03:10:00,
2013-04-20 23:16:00,48.7,37.1,30.27,North,360,0.0,0.0,64,0.00,,,0.00,Wunderground v.1.15,2013-04-21 03:16:00,
2013-04-20 23:22:00,48.9,37.6,30.27,North,360,0.0,0.0,65,0.00,,,0.00,Wunderground v.1.15,2013-04-21 03:22:00,
2013-04-20 23:28:00,48.8,37.6,30.27,North,360,0.0,0.0,65,0.00,,,0.00,Wunderground v.1.15,2013-04-21 03:28:00,
2013-04-20 23:33:00,48.4,37.9,30.27,North,360,0.0,3.0,67,0.00,,,0.00,Wunderground v.1.15,2013-04-21 03:33:00,
2013-04-20 23:39:00,48.2,38.1,30.27,North,360,1.0,3.0,68,0.00,,,0.00,Wunderground v.1.15,2013-04-21 03:39:00,
2013-04-20 23:45:00,48.2,37.8,30.27,North,360,0.0,3.0,67,0.00,,,0.00,Wunderground v.1.15,2013-04-21 03:45:00,
2013-04-20 23:51:00,48.2,37.0,30.27,North,360,0.0,3.0,65,0.00,,,0.00,Wunderground v.1.15,2013-04-21 03:51:00,
2013-04-20 23:57:00,48.4,37.9,30.28,North,360,0.0,3.0,67,0.00,,,0.00,Wunderground v.1.15,2013-04-21 03:57:00,